| time (UTC) | temp C | wind direction | speed KPH | gust KPH | rain 1hr cm | rain 24hr cm | rain mn cm | humidity % | barometer mb |
| 20260506050507 | 4 | 155 | 3.2 | 20.9 | 0.00 | 0.00 | 0.00 | 64 | 1008.9 |
| 20260506044707 | 5 | 199 | 3.2 | 17.7 | 0.00 | 0.00 | 0.00 | 63 | 1008.8 |
| 20260506043807 | 5 | 147 | 3.2 | 11.3 | 0.00 | 0.00 | 0.00 | 62 | 1008.6 |
| 20260506042908 | 5 | 149 | 3.2 | 9.7 | 0.00 | 0.00 | 0.00 | 61 | 1008.8 |
| 20260506042007 | 6 | 144 | 3.2 | 11.3 | 0.00 | 0.00 | 0.00 | 60 | 1008.8 |
| 20260506041107 | 6 | 133 | 3.2 | 12.9 | 0.00 | 0.00 | 0.00 | 58 | 1008.7 |
| 20260506040207 | 7 | 152 | 3.2 | 12.9 | 0.00 | 0.00 | 0.00 | 57 | 1008.4 |
| 20260506035308 | 7 | 157 | 3.2 | 19.3 | 0.00 | 0.00 | 0.00 | 55 | 1008.2 |
| 20260506034407 | 7 | 151 | 3.2 | 17.7 | 0.00 | 0.00 | 0.00 | 55 | 1007.9 |
| 20260506032607 | 7 | 146 | 3.2 | 17.7 | 0.00 | 0.00 | 0.00 | 53 | 1008.1 |
| 20260506031707 | 8 | 144 | 6.4 | 16.1 | 0.00 | 0.00 | 0.00 | 52 | 1008.0 |
| 20260506030807 | 8 | 147 | 4.8 | 16.1 | 0.00 | 0.00 | 0.00 | 50 | 1007.9 |
| 20260506025907 | 9 | 160 | 4.8 | 19.3 | 0.00 | 0.00 | 0.00 | 49 | 1007.8 |
| 20260506024108 | 10 | 142 | 3.2 | 11.3 | 0.00 | 0.00 | 0.00 | 47 | 1007.9 |
| 20260506023207 | 10 | 139 | 3.2 | 16.1 | 0.00 | 0.00 | 0.00 | 46 | 1007.8 |
| 20260506022307 | 10 | 171 | 3.2 | 19.3 | 0.00 | 0.00 | 0.00 | 45 | 1007.6 |
| 20260506020507 | 11 | 148 | 1.6 | 9.7 | 0.00 | 0.00 | 0.00 | 43 | 1007.7 |
| 20260506015607 | 11 | 146 | 3.2 | 14.5 | 0.00 | 0.00 | 0.00 | 44 | 1007.4 |
| 20260506014707 | 10 | 137 | 4.8 | 17.7 | 0.00 | 0.00 | 0.00 | 44 | 1007.2 |
| 20260506012907 | 11 | 150 | 4.8 | 20.9 | 0.00 | 0.00 | 0.00 | 43 | 1007.2 |
| 20260506012007 | 11 | 171 | 4.8 | 20.9 | 0.00 | 0.00 | 0.00 | 44 | 1006.9 |
| 20260506011107 | 11 | 155 | 4.8 | 17.7 | 0.00 | 0.00 | 0.00 | 42 | 1007.2 |
| 20260506010208 | 11 | 174 | 4.8 | 19.3 | 0.00 | 0.00 | 0.00 | 42 | 1007.2 |
| 20260506005307 | 12 | 164 | 4.8 | 19.3 | 0.00 | 0.00 | 0.00 | 40 | 1007.2 |
| 20260506004407 | 12 | 154 | 6.4 | 20.9 | 0.00 | 0.00 | 0.00 | 40 | 1007.2 |
| 20260506003507 | 12 | 156 | 4.8 | 17.7 | 0.00 | 0.00 | 0.00 | 38 | 1006.9 |
| 20260506002608 | 12 | 154 | 4.8 | 20.9 | 0.00 | 0.00 | 0.00 | 39 | 1007.0 |
| 20260506000806 | 12 | 138 | 4.8 | 16.1 | 0.00 | 0.00 | 0.00 | 39 | 1006.9 |
| 20260505235007 | 11 | 152 | 6.4 | 14.5 | 0.00 | 0.00 | 0.00 | 41 | 1006.9 |
| 20260505234107 | 11 | 151 | 4.8 | 20.9 | 0.00 | 0.00 | 0.00 | 40 | 1007.0 |
| 20260505233207 | 12 | 165 | 4.8 | 14.5 | 0.00 | 0.00 | 0.00 | 40 | 1006.8 |
| 20260505232307 | 11 | 153 | 4.8 | 14.5 | 0.00 | 0.00 | 0.00 | 41 | 1007.0 |
| 20260505231406 | 12 | 154 | 4.8 | 27.4 | 0.00 | 0.00 | 0.00 | 40 | 1007.0 |
| 20260505230506 | 12 | 167 | 4.8 | 27.4 | 0.00 | 0.00 | 0.00 | 41 | 1007.1 |
| 20260505225606 | 13 | 154 | 6.4 | 19.3 | 0.00 | 0.00 | 0.00 | 39 | 1007.0 |
| 20260505223807 | 13 | 146 | 4.8 | 17.7 | 0.00 | 0.00 | 0.00 | 39 | 1007.0 |
| 20260505222906 | 13 | 149 | 4.8 | 16.1 | 0.00 | 0.00 | 0.00 | 38 | 1006.9 |
| 20260505222007 | 13 | 149 | 6.4 | 17.7 | 0.00 | 0.00 | 0.00 | 39 | 1006.9 |
| 20260505221106 | 13 | 155 | 6.4 | 24.1 | 0.00 | 0.00 | 0.00 | 38 | 1006.8 |
| 20260505220207 | 13 | 164 | 6.4 | 19.3 | 0.00 | 0.00 | 0.00 | 37 | 1006.9 |
| 20260505215306 | 13 | 179 | 4.8 | 16.1 | 0.00 | 0.00 | 0.00 | 37 | 1006.8 |
| 20260505214407 | 13 | 133 | 8.0 | 24.1 | 0.00 | 0.00 | 0.00 | 38 | 1006.6 |
| 20260505213506 | 13 | 163 | 8.0 | 22.5 | 0.00 | 0.00 | 0.00 | 37 | 1006.5 |
| 20260505212606 | 13 | 159 | 6.4 | 20.9 | 0.00 | 0.00 | 0.00 | 36 | 1006.4 |
| 20260505211707 | 13 | 164 | 6.4 | 19.3 | 0.00 | 0.00 | 0.00 | 38 | 1006.4 |
| 20260505210806 | 13 | 150 | 8.0 | 24.1 | 0.00 | 0.00 | 0.00 | 40 | 1006.5 |
| 20260505205906 | 13 | 140 | 8.0 | 24.1 | 0.00 | 0.00 | 0.00 | 39 | 1006.6 |
| 20260505205007 | 13 | 172 | 6.4 | 27.4 | 0.00 | 0.00 | 0.00 | 41 | 1006.6 |
| 20260505204106 | 13 | 156 | 6.4 | 22.5 | 0.00 | 0.00 | 0.00 | 42 | 1006.4 |
| 20260505203207 | 13 | 159 | 6.4 | 25.7 | 0.00 | 0.00 | 0.00 | 43 | 1006.5 |
| 20260505202307 | 13 | 141 | 8.0 | 20.9 | 0.00 | 0.00 | 0.00 | 46 | 1006.3 |
| 20260505201406 | 12 | 150 | 8.0 | 27.4 | 0.00 | 0.00 | 0.00 | 48 | 1006.5 |
| 20260505200507 | 12 | 148 | 6.4 | 19.3 | 0.00 | 0.00 | 0.00 | 50 | 1006.3 |
| 20260505195607 | 12 | 144 | 6.4 | 22.5 | 0.00 | 0.00 | 0.00 | 52 | 1006.4 |
| 20260505194707 | 12 | 160 | 8.0 | 24.1 | 0.00 | 0.00 | 0.00 | 53 | 1006.2 |
| 20260505193806 | 12 | 152 | 8.0 | 30.6 | 0.00 | 0.00 | 0.00 | 51 | 1006.2 |
| 20260505192907 | 13 | 162 | 8.0 | 27.4 | 0.00 | 0.00 | 0.00 | 51 | 1006.2 |
| 20260505192006 | 12 | 164 | 9.7 | 24.1 | 0.00 | 0.00 | 0.00 | 53 | 1006.3 |
| 20260505191108 | 13 | 166 | 6.4 | 24.1 | 0.00 | 0.00 | 0.00 | 52 | 1006.5 |
| 20260505185306 | 12 | 148 | 8.0 | 25.7 | 0.00 | 0.00 | 0.00 | 53 | 1006.6 |
| 20260505184408 | 12 | 163 | 8.0 | 27.4 | 0.00 | 0.00 | 0.00 | 53 | 1006.6 |
| 20260505183506 | 13 | 153 | 6.4 | 17.7 | 0.00 | 0.00 | 0.00 | 52 | 1006.7 |
| 20260505182606 | 13 | 178 | 4.8 | 19.3 | 0.00 | 0.00 | 0.00 | 53 | 1006.6 |
| 20260505181706 | 13 | 184 | 3.2 | 9.7 | 0.00 | 0.00 | 0.00 | 54 | 1006.4 |
| 20260505180806 | 13 | 200 | 4.8 | 22.5 | 0.00 | 0.00 | 0.00 | 53 | 1006.5 |
| 20260505175906 | 13 | 169 | 4.8 | 16.1 | 0.00 | 0.00 | 0.00 | 52 | 1006.3 |
| 20260505175006 | 12 | 155 | 6.4 | 25.7 | 0.00 | 0.00 | 0.00 | 53 | 1006.4 |
| 20260505174106 | 12 | 146 | 4.8 | 19.3 | 0.00 | 0.00 | 0.00 | 53 | 1006.4 |
| 20260505172307 | 13 | 154 | 4.8 | 17.7 | 0.00 | 0.00 | 0.00 | 50 | 1006.5 |
| 20260505171406 | 13 | 141 | 4.8 | 16.1 | 0.00 | 0.00 | 0.00 | 49 | 1006.3 |
| 20260505170506 | 12 | 158 | 4.8 | 20.9 | 0.00 | 0.00 | 0.00 | 49 | 1006.2 |
| 20260505165607 | 12 | 155 | 3.2 | 14.5 | 0.00 | 0.00 | 0.00 | 49 | 1006.3 |
| 20260505163806 | 12 | 147 | 3.2 | 11.3 | 0.00 | 0.00 | 0.00 | 49 | 1006.2 |
| 20260505162906 | 11 | 147 | 1.6 | 11.3 | 0.00 | 0.00 | 0.00 | 49 | 1006.1 |
| 20260505162011 | 11 | 162 | 1.6 | 9.7 | 0.00 | 0.00 | 0.00 | 48 | 1006.0 |
| 20260505161106 | 12 | 154 | 1.6 | 6.4 | 0.00 | 0.00 | 0.00 | 47 | 1006.1 |
| 20260505160206 | 11 | 176 | 1.6 | 9.7 | 0.00 | 0.00 | 0.00 | 49 | 1006.1 |
| 20260505152606 | 7 | 104 | 0.0 | 1.6 | 0.00 | 0.00 | 0.00 | 66 | 1006.5 |
| 20260505150806 | 4 | 104 | 0.0 | 1.6 | 0.00 | 0.00 | 0.00 | 74 | 1006.7 |
| 20260505140506 | 3 | 95 | 0.0 | 3.2 | 0.00 | 0.00 | 0.00 | 75 | 1006.8 |
| 20260505130206 | 2 | 123 | 0.0 | 1.6 | 0.00 | 0.00 | 0.00 | 80 | 1006.9 |
| 20260505124406 | 2 | 78 | 0.0 | 3.2 | 0.00 | 0.00 | 0.00 | 79 | 1007.4 |
| 20260505123507 | 2 | 92 | 0.0 | 1.6 | 0.00 | 0.00 | 0.00 | 80 | 1007.3 |
| 20260505122606 | 2 | 83 | 0.0 | 3.2 | 0.00 | 0.00 | 0.00 | 80 | 1007.4 |
| 20260505121706 | 2 | 102 | 0.0 | 3.2 | 0.00 | 0.00 | 0.00 | 79 | 1007.5 |
| 20260505120806 | 2 | 0 | 0.0 | 0.0 | 0.00 | 0.00 | 0.00 | 79 | 1007.4 |
| 20260505115906 | 2 | 0 | 0.0 | 0.0 | 0.00 | 0.00 | 0.00 | 80 | 1007.5 |
| 20260505115006 | 2 | 108 | 0.0 | 1.6 | 0.00 | 0.00 | 0.00 | 79 | 1007.5 |
| 20260505114106 | 2 | 0 | 0.0 | 0.0 | 0.00 | 0.00 | 0.00 | 78 | 1007.9 |
| 20260505113206 | 2 | 0 | 0.0 | 0.0 | 0.00 | 0.00 | 0.00 | 78 | 1008.1 |
| 20260505112307 | 2 | 0 | 0.0 | 0.0 | 0.00 | 0.00 | 0.00 | 78 | 1008.3 |
| 20260505111406 | 2 | 0 | 0.0 | 0.0 | 0.00 | 0.00 | 0.00 | 76 | 1008.4 |
| 20260505102006 | 4 | 0 | 0.0 | 0.0 | 0.00 | 0.00 | 0.00 | 71 | 1009.0 |
| 20260505101106 | 5 | 0 | 0.0 | 0.0 | 0.00 | 0.00 | 0.00 | 72 | 1009.0 |
| 20260505100205 | 3 | 0 | 0.0 | 0.0 | 0.00 | 0.00 | 0.00 | 74 | 1009.1 |
| 20260505095306 | 3 | 0 | 0.0 | 0.0 | 0.00 | 0.00 | 0.00 | 74 | 1009.3 |
| 20260505094406 | 3 | 0 | 0.0 | 0.0 | 0.00 | 0.00 | 0.00 | 74 | 1009.3 |
| 20260505092606 | 3 | 86 | 0.0 | 1.6 | 0.00 | 0.00 | 0.00 | 75 | 1009.5 |
| 20260505091706 | 3 | 0 | 0.0 | 0.0 | 0.00 | 0.00 | 0.00 | 75 | 1009.5 |
| 20260505090805 | 3 | 0 | 0.0 | 0.0 | 0.00 | 0.00 | 0.00 | 75 | 1009.6 |
| 20260505085907 | 3 | 0 | 0.0 | 0.0 | 0.00 | 0.00 | 0.00 | 74 | 1009.8 |
| 20260505085006 | 3 | 0 | 0.0 | 0.0 | 0.00 | 0.00 | 0.00 | 73 | 1010.0 |
| 20260505084105 | 3 | 0 | 0.0 | 0.0 | 0.00 | 0.00 | 0.00 | 72 | 1010.2 |
| 20260505083206 | 3 | 0 | 0.0 | 0.0 | 0.00 | 0.00 | 0.00 | 72 | 1010.2 |
| 20260505082306 | 3 | 0 | 0.0 | 0.0 | 0.00 | 0.00 | 0.00 | 73 | 1010.3 |
| 20260505080505 | 3 | 109 | 0.0 | 1.6 | 0.00 | 0.00 | 0.00 | 72 | 1010.5 |
| 20260505075605 | 3 | 90 | 0.0 | 1.6 | 0.00 | 0.00 | 0.00 | 73 | 1010.7 |
| 20260505074706 | 3 | 88 | 0.0 | 3.2 | 0.00 | 0.00 | 0.00 | 73 | 1010.8 |
| 20260505073805 | 3 | 0 | 0.0 | 0.0 | 0.00 | 0.00 | 0.00 | 72 | 1010.9 |
| 20260505072006 | 3 | 96 | 0.0 | 1.6 | 0.00 | 0.00 | 0.00 | 72 | 1011.1 |
| 20260505071106 | 3 | 108 | 0.0 | 1.6 | 0.00 | 0.00 | 0.00 | 71 | 1011.2 |
| 20260505070205 | 3 | 109 | 0.0 | 1.6 | 0.00 | 0.00 | 0.00 | 71 | 1011.4 |
| 20260505065306 | 3 | 97 | 0.0 | 3.2 | 0.00 | 0.00 | 0.00 | 70 | 1011.5 |
| 20260505064405 | 3 | 109 | 0.0 | 1.6 | 0.00 | 0.00 | 0.00 | 70 | 1011.6 |
| 20260505063506 | 3 | 109 | 0.0 | 1.6 | 0.00 | 0.00 | 0.00 | 68 | 1011.6 |
| 20260505062605 | 4 | 92 | 0.0 | 1.6 | 0.00 | 0.00 | 0.00 | 67 | 1011.7 |
| 20260505061705 | 4 | 92 | 0.0 | 1.6 | 0.00 | 0.00 | 0.00 | 66 | 1011.7 |
| 20260505060805 | 5 | 108 | 0.0 | 1.6 | 0.00 | 0.00 | 0.00 | 68 | 1011.8 |
| 20260505055906 | 5 | 111 | 0.0 | 1.6 | 0.00 | 0.00 | 0.00 | 65 | 1011.8 |
| 20260505055005 | 5 | 107 | 0.0 | 1.6 | 0.00 | 0.00 | 0.00 | 64 | 1012.0 |